Погода в Екатериноградской

Россия / Кабардино-Балкарская Республика     43°45′38″N   44°13′54″E
темп.,
°C
ветер,
м/с
пор.,
м/с
влажн.,
%
обл.,
%
осадки,
мм/ч
давл.,
гПа
погр.,
м
1 декабря, ср
ср100:00+9сз56880 0.0 995104
03:00+10сз9167417 0.0 998798
06:00+7зюз228693 0.0 99931
09:00+8зюз2382100 0.1 100175
12:00+9сз91255100 0.9 1004759
15:00+7ссз71358100 1.3 1006891
18:00+7ссв2553100 0.1 1010667
21:00+4ююв348683 0.3 1012330
2 декабря, чт
чт200:00+3ююв23895 0.0 101270
03:00+2ююв1188100 0.0 101310
06:00+3зсз228317 0.0 101413
09:00+4ссз5107744 0.0 1018472
12:00+8сз455593 0.0 1020956
15:00+8зсз125246 0.0 10211188
18:00+5ю33715 0.0 102352
21:00+4юв22730 0.0 102317
3 декабря, пт
пт300:00+3вюв22770 0.0 102317
03:00+2вюв22750 0.0 102218
06:00+2в33805 0.0 102231
09:00+3в2473100 0.0 1022130
12:00+7в235765 0.0 1020408
15:00+8всв2258100 0.0 1019368
18:00+5юв007540 0.0 102010
21:00+4з11780 0.0 101910
4 декабря, сб
сб400:00+3з22785 0.0 102014
03:00+3зюз227071 0.0 102117
06:00+3юз22635 0.0 102013
09:00+6зюз225222 0.0 102044
12:00+11зсз113545 0.0 1018216
15:00+11вюв224088 0.0 101720
18:00+8вюв224868 0.0 101612
21:00+6всв1150100 0.0 101610
5 декабря, вс
вс500:00+6вюв225032 0.0 101511
03:00+5юв1153100 0.0 101410
06:00+4с1155100 0.0 101410
09:00+6сз1152100 0.0 101510
12:00+10сз1239100 0.0 1015247
15:00+10всв1143100 0.0 101615
18:00+7св1149100 0.0 101810
21:00+6юв115269 0.0 101810